Vertical_Velocity
-0 1 2 2 2 3 3 4 3 3 2 2 2 2 1 0 -1 -2 -2 -2 -2 -3 -2 -2 -2 -1 -1 -0 -1 -1 -2 -2 -2 -3 -3 -3 -3 -2 -2 -2 -2 -2 -3 -3 -2 -1 -1 -1 -1 -2 -2 -1 -0 -1 -2 -4 -4 -3 -2 -0 0 1 2 3 3 3 3 2 -0
3 4 4 3 1 1 1 1 -0 -1 -1 -1 -1 -0 -0 -0 -0 -0 0 1 1 1 1 1 1 1 1 1 1 1 0 0 0 -0 -1 -2 -2 -3 -3 -4 -4 -3 -2 -1 -1 -1 -1 -1 -1 -2 -3 -3 -1 -1 -2 -3 -3 -3 -3 -2 0 2 3 2 1 2 4 3 1
-0 0 1 1 -1 -3 -4 -2 -2 -2 -2 -2 -1 -0 0 1 1 2 2 2 1 1 1 1 0 -0 -0 -0 0 1 1 1 0 -1 -2 -3 -3 -3 -3 -4 -5 -4 -3 -1 -1 -1 -1 -1 -2 -3 -3 -4 -2 -2 -2 -3 -3 -3 -3 -2 0 2 3 2 1 2 4 4 3
-3 -2 -0 1 -0 -2 -3 -3 -2 -1 -1 0 1 1 2 2 2 1 1 -0 -1 -2 -3 -3 -4 -3 -3 -3 -3 -3 -3 -3 -3 -4 -4 -5 -5 -4 -4 -4 -5 -5 -4 -3 -2 -2 -2 -2 -3 -3 -3 -3 -2 -2 -2 -1 -2 -2 -3 -2 1 2 3 3 4 4 5 5 4
0 1 1 0 -1 -2 -2 -2 -1 -1 0 1 2 2 1 0 -1 -2 -3 -3 -4 -5 -5 -5 -5 -4 -4 -4 -4 -5 -5 -5 -5 -5 -5 -6 -5 -4 -4 -4 -4 -4 -4 -3 -3 -3 -3 -3 -3 -3 -3 -2 -2 -2 -1 0 0 -1 -2 -2 0 2 4 5 5 6 7 8 6
1 2 2 1 0 -0 -1 -1 -1 0 1 1 1 0 -1 -2 -3 -4 -5 -5 -6 -6 -6 -6 -5 -5 -5 -4 -5 -5 -5 -4 -4 -4 -4 -4 -3 -3 -2 -2 -2 -2 -2 -2 -2 -2 -2 -2 -2 -3 -2 -2 -2 -1 -0 1 1 1 0 -1 -1 1 3 6 5 6 8 9 8
3 3 3 2 2 1 1 0 0 1 1 1 1 1 -0 -1 -2 -3 -3 -3 -3 -3 -3 -4 -4 -4 -4 -5 -5 -4 -4 -4 -4 -3 -3 -2 -2 -1 -1 -1 -1 -1 -1 -1 -0 -1 -1 -0 -1 -2 -2 -1 -1 -1 -0 1 1 1 1 -0 -0 0 2 3 4 6 7 6 5
2 3 2 2 1 1 0 -0 -0 0 1 1 1 1 1 1 0 0 0 0 0 0 0 0 -0 -1 -2 -2 -3 -3 -3 -3 -4 -3 -3 -2 -1 -0 0 1 -0 -1 -1 0 1 1 1 1 1 -0 -1 -1 -1 -1 -1 -0 0 0 -0 -0 0 1 2 3 3 4 4 2 0
1 1 1 1 1 0 -0 -0 -0 1 1 2 2 2 2 2 2 2 1 1 1 2 2 2 2 2 1 1 0 0 -0 -0 -1 -2 -2 -2 -1 -1 0 1 1 0 -0 0 1 1 1 2 2 1 1 1 0 -0 -1 -0 -0 -1 -1 -1 -0 0 1 2 3 3 3 2 1
1 1 0 0 0 0 1 1 2 2 3 3 3 3 3 2 2 1 1 1 1 1 2 2 2 2 2 2 2 2 2 2 1 0 -0 -1 -1 -1 -1 0 1 1 1 1 1 1 1 1 1 2 3 3 3 2 2 1 1 -0 -1 -1 -1 -0 -0 0 2 3 3 3 2
1 1 1 1 1 2 3 3 4 4 4 4 3 3 2 2 1 1 0 -0 0 0 0 1 1 0 1 1 2 2 2 2 1 1 0 -1 -1 -2 -2 -1 -1 -0 0 1 1 1 1 -0 -0 1 3 4 5 5 5 5 5 3 2 0 1 0 -0 -1 1 2 3 3 3
1 1 1 1 1 2 3 3 4 3 3 3 2 2 1 1 -0 -1 -1 -1 -1 -1 -1 -1 -1 -1 -1 -0 0 1 1 1 1 1 0 -0 -1 -1 -2 -2 -2 -2 -1 -0 1 2 1 1 -0 0 1 3 5 6 6 7 7 6 5 4 3 3 2 1 1 2 3 4 3
1 1 1 1 1 2 2 2 2 2 1 1 0 0 -0 -0 -1 -1 -2 -2 -2 -2 -1 -1 -1 -1 -1 -1 -1 -1 -0 -0 0 -0 -0 -0 0 0 -0 -1 -2 -2 -2 -2 -1 0 1 1 1 1 1 1 2 3 4 6 6 5 4 3 4 4 3 2 3 4 4 4 3
1 0 0 0 0 0 0 0 0 0 -0 -0 -1 -1 -1 -1 -1 -1 -1 -1 -1 -1 -1 -1 -0 -0 -0 -1 -1 -1 -1 -1 -1 -1 -1 -1 -0 0 1 0 0 -0 -1 -2 -2 -2 -1 -1 -0 1 1 1 1 1 3 5 4 3 2 1 2 1 1 2 3 4 3 2 2
-0 -0 -0 -0 -0 -0 -1 -1 -1 -1 -1 -1 -2 -2 -2 -2 -1 -1 -1 -1 -0 -0 -0 -0 -0 0 1 1 -0 -1 -1 -1 -1 -2 -2 -2 -1 -1 -0 0 1 1 1 1 -1 -2 -2 -2 -1 -0 0 1 1 1 1 2 2 2 2 2 1 1 1 3 3 3 2 1 1
-1 -1 -1 -1 -1 -1 -1 -1 -1 -1 -1 -2 -2 -2 -2 -2 -2 -1 -1 -1 -1 -0 -0 -0 -0 -0 0 1 1 0 -0 -0 -0 -1 -1 -2 -2 -1 -1 -1 -1 0 1 2 2 0 -1 -2 -2 -1 0 0 1 1 1 1 1 1 1 1 2 2 3 3 4 4 3 2 2
-1 -1 -1 -1 -1 -1 -1 -1 -1 -1 -1 -1 -1 -1 -2 -2 -2 -2 -1 -1 -2 -2 -1 -1 -1 -1 -1 -0 0 1 0 -0 -0 -0 -0 -0 -0 -1 -1 -1 -1 -0 0 1 1 1 1 -0 -1 -1 -0 0 1 1 2 2 2 1 1 0 1 1 1 2 3 3 3 3 3
-1 -1 -1 -1 -1 -1 -1 -1 -1 -1 -1 -1 -1 -1 -1 -1 -1 -1 -1 -0 -1 -1 -2 -2 -1 -1 -1 -1 -1 -0 -0 -1 -1 -1 -0 0 0 0 0 0 0 0 0 -0 -0 -0 0 0 -0 -0 -1 -0 0 1 2 2 2 2 1 1 -0 -0 0 1 1 1 2 1 1
-1 -1 -1 -1 -1 -1 -1 -1 -1 -1 -1 -1 -1 -0 -0 0 -0 -0 0 1 1 1 -0 -1 -1 -0 0 -0 -1 -1 -0 -0 -1 -1 -1 -0 -0 -0 -0 0 1 1 1 1 -1 -1 -1 -1 -0 -0 -1 -1 -0 0 1 2 2 2 2 1 1 0 0 0 0 1 1 1 1
-1 -1 -1 -1 -1 -2 -2 -2 -2 -2 -2 -2 -1 -1 -1 -0 -0 -0 -0 0 1 2 2 1 0 0 1 1 0 0 0 0 -0 -1 -1 -1 -1 -0 -0 -0 -0 0 1 1 0 -1 -1 -2 -2 -2 -2 -2 -2 -1 0 1 1 2 2 2 2 1 1 1 1 1 1 1 1
-1 -1 -1 -2 -2 -2 -2 -2 -2 -2 -2 -2 -2 -2 -2 -2 -2 -1 -1 -1 -1 0 1 1 0 0 0 1 1 1 1 1 1 0 -0 -1 -0 -0 -0 -0 -1 -1 -0 0 0 0 -1 -2 -2 -3 -3 -3 -4 -3 -2 -0 1 1 1 1 1 1 2 2 2 2 1 1 1
-1 -1 -1 -1 -1 -1 -1 -2 -2 -2 -2 -2 -2 -2 -2 -2 -2 -2 -2 -2 -2 -2 -2 -1 -1 -1 -1 -0 -0 -0 0 1 2 2 2 1 0 0 1 1 0 -0 -1 -1 1 1 1 -0 -1 -2 -3 -4 -5 -5 -4 -2 -1 -0 0 1 1 1 1 1 1 1 1 1 0
-1 -1 -1 -1 -1 -1 -1 -1 -1 -1 -1 -1 -1 -1 -1 -1 -1 -1 -1 -2 -2 -2 -2 -2 -2 -2 -2 -2 -2 -2 -2 -1 -0 1 2 3 2 1 1 2 1 0 -1 -1 1 2 3 2 2 1 1 -1 -3 -4 -5 -4 -3 -2 -2 -1 -0 0 1 0 1 1 0 -0 -1
-1 -1 -1 -1 -1 -1 -1 -1 -1 -1 -1 -1 -1 -1 -1 -1 -1 -1 -1 -1 -1 -1 -1 -2 -2 -2 -2 -3 -2 -2 -3 -3 -3 -2 -0 2 2 2 1 1 1 0 -1 -1 -0 1 3 4 3 3 3 3 1 -1 -2 -3 -3 -3 -3 -2 -1 -0 -0 -0 0 0 -0 -1 -1
-1 -1 -1 -1 -1 -1 -1 -2 -2 -2 -2 -2 -2 -2 -2 -2 -2 -2 -1 -1 -1 -0 -0 -1 -1 -2 -2 -2 -3 -2 -2 -2 -3 -4 -4 -3 -0 1 2 1 1 0 -1 -1 -1 -1 1 2 3 3 3 3 3 2 1 -0 -1 -1 -1 -1 -1 -1 -2 -2 -2 -1 -0 -0 -1
-2 -2 -2 -2 -2 -2 -2 -2 -3 -3 -3 -3 -3 -3 -3 -3 -2 -2 -2 -2 -2 -1 -1 -1 -1 -2 -2 -2 -3 -3 -2 -2 -2 -3 -4 -5 -4 -2 -0 1 1 1 0 -1 -1 -2 -1 -0 1 2 3 3 2 2 2 1 1 1 1 1 0 -1 -2 -3 -3 -3 -1 -0 0
-3 -3 -3 -2 -2 -2 -3 -3 -3 -3 -3 -3 -3 -3 -3 -3 -3 -2 -2 -2 -2 -2 -1 -1 -1 -2 -2 -2 -2 -2 -2 -2 -1 -2 -2 -3 -4 -4 -3 -1 -0 1 1 1 0 -0 -1 -1 -0 1 2 3 2 2 2 2 2 3 3 3 2 1 -0 -2 -2 -2 -1 -1 -1
-3 -3 -3 -3 -3 -2 -2 -2 -3 -3 -3 -3 -3 -3 -3 -2 -2 -2 -2 -2 -2 -2 -2 -1 -1 -1 -1 -1 -1 -1 -1 -1 -1 -1 -1 -1 -2 -2 -2 -2 -1 0 1 2 2 1 1 -0 -0 1 2 3 3 3 3 3 3 3 3 3 2 2 1 -0 0 1 1 -0 -1
-3 -3 -3 -3 -3 -3 -2 -2 -2 -3 -3 -3 -2 -2 -2 -2 -1 -1 -1 -1 -1 -2 -2 -2 -2 -2 -1 -2 -2 -2 -1 -1 -1 -1 -2 -2 -2 -2 -1 -0 -0 -0 1 2 2 2 1 1 0 1 1 3 3 3 3 3 4 4 3 3 2 2 1 1 1 2 2 2 1
-3 -3 -3 -3 -3 -3 -3 -3 -3 -3 -3 -3 -2 -2 -2 -2 -2 -2 -2 -2 -2 -2 -2 -3 -3 -3 -3 -3 -3 -3 -3 -3 -3 -2 -3 -4 -4 -4 -3 -2 -1 -1 -0 1 2 1 1 1 1 1 1 1 3 3 3 3 4 4 3 2 2 1 1 1 1 2 2 3 2
-3 -3 -3 -3 -3 -3 -3 -3 -3 -3 -3 -3 -3 -3 -3 -3 -3 -2 -2 -3 -3 -3 -2 -2 -3 -3 -3 -3 -2 -3 -3 -4 -3 -2 -2 -3 -4 -4 -4 -3 -3 -2 -2 -0 0 1 0 0 0 0 0 1 2 2 2 2 3 3 3 2 1 1 1 1 1 1 1 2 3
-3 -4 -4 -4 -4 -3 -3 -3 -3 -3 -3 -3 -3 -3 -2 -2 -2 -1 -1 -2 -2 -3 -3 -2 -2 -2 -2 -2 -1 -1 -1 -1 -1 -1 -0 -0 -2 -3 -3 -3 -2 -2 -2 -1 -1 -1 -1 -1 -1 -1 -0 -0 -0 0 1 1 1 1 1 1 1 1 1 0 -0 0 1 2 3
-4 -4 -4 -4 -4 -3 -3 -3 -2 -2 -2 -2 -1 -1 -2 -2 -1 -0 0 0 -1 -1 -1 -1 -1 -1 -2 -2 -1 -1 -1 -0 0 0 0 1 0 -1 -2 -3 -2 -1 0 1 -0 -1 -2 -2 -2 -2 -1 -1 -1 -0 -0 -0 -0 -0 -1 -1 -0 1 1 1 0 0 1 2 3
-4 -4 -3 -3 -3 -3 -2 -2 -2 -1 -1 -1 -0 -0 -0 -1 -2 -1 -1 0 0 -0 -0 -0 -0 -0 -1 -1 -1 -1 -2 -1 -0 1 1 1 0 -1 -2 -3 -2 0 2 2 1 -0 -0 -0 -1 -1 -1 -1 -1 -1 -1 0 0 -1 -2 -2 -1 -0 1 1 1 1 1 2 3
-3 -3 -2 -2 -2 -2 -2 -2 -1 -1 -1 -1 -1 -1 -0 -0 -1 -1 -2 -1 -1 -1 -1 -0 0 0 -0 -0 0 -0 -1 -3 -2 -1 0 1 0 -1 -2 -3 -2 1 3 4 2 1 1 1 1 1 1 1 -1 -2 -2 -0 -0 -1 -1 -1 -1 -1 0 1 1 1 1 3 3
-2 -2 -2 -2 -2 -2 -2 -2 -2 -2 -2 -2 -2 -2 -2 -2 -1 -1 -2 -2 -3 -3 -2 -2 -1 -1 -1 -1 -1 -0 -1 -2 -3 -3 -2 -0 -0 -2 -4 -6 -4 -0 3 5 3 2 1 2 2 3 3 2 0 -1 -2 -1 -1 -2 -2 -2 -2 -2 -1 1 1 1 1 2 2
-2 -3 -3 -3 -3 -3 -2 -3 -3 -3 -3 -3 -3 -3 -3 -3 -3 -2 -1 -2 -4 -5 -4 -3 -2 -2 -2 -2 -3 -2 -2 -1 -2 -4 -5 -3 -1 -3 -5 -8 -7 -3 1 5 3 2 1 2 3 4 4 3 1 -0 -1 -1 -1 -2 -3 -3 -4 -3 -1 1 1 1 1 1 1
-3 -3 -3 -4 -4 -3 -3 -3 -3 -4 -4 -4 -3 -3 -3 -3 -3 -3 -2 -2 -3 -5 -6 -5 -4 -3 -3 -3 -4 -4 -3 -1 -1 -2 -4 -5 -3 -2 -4 -9 -10 -6 -1 3 3 2 1 1 3 4 5 3 1 -0 -0 -1 -1 -1 -1 -3 -5 -4 -3 -0 0 0 -0 -1 -0
-2 -2 -3 -3 -3 -3 -3 -3 -3 -3 -4 -4 -4 -3 -3 -3 -3 -3 -2 -1 -2 -4 -5 -7 -5 -4 -3 -3 -5 -6 -5 -2 0 0 -2 -4 -3 -2 -3 -6 -10 -9 -5 1 2 2 1 0 2 3 5 4 2 1 0 -1 -2 -1 -0 -0 -2 -3 -3 -2 -1 -1 -2 -2 -0
-0 -1 -1 -2 -3 -3 -4 -3 -3 -2 -3 -3 -4 -4 -3 -3 -3 -3 -2 -2 -2 -2 -4 -5 -5 -4 -3 -3 -4 -6 -7 -6 -1 1 1 -2 -3 -3 -3 -4 -8 -9 -7 -2 1 1 1 0 1 2 4 4 2 1 1 0 -2 -3 -2 1 1 0 -2 -3 -2 -2 -2 -3 -1
0 -1 -1 -2 -2 -3 -3 -4 -3 -2 -2 -2 -2 -3 -3 -3 -3 -3 -3 -3 -2 -2 -2 -4 -5 -4 -3 -2 -3 -6 -8 -9 -5 -2 0 -0 -2 -2 -3 -3 -6 -8 -7 -4 -0 1 1 0 0 2 4 5 3 2 1 1 -2 -4 -4 -1 2 3 2 -1 -2 -3 -3 -3 -1
Height
1494 1494 1494 1495 1495 1496 1497 1497 1497 1497 1497 1497 1497 1497 1497 1497 1497 1497 1497 1497 1497 1497 1497 1498 1498 1499 1499 1500 1500 1500 1500 1500 1500 1500 1499 1499 1499 1498 1498 1497 1497 1497 1496 1496 1495 1495 1494 1494 1494 1493 1493 1492 1492 1492 1492 1492 1492 1491 1491 1491 1491 1492 1492 1492 1492 1492 1492 1493 1493
1494 1494 1494 1495 1495 1496 1496 1497 1497 1497 1497 1497 1497 1497 1497 1497 1496 1496 1496 1496 1497 1497 1497 1497 1498 1498 1498 1499 1499 1499 1499 1498 1498 1497 1497 1497 1497 1497 1496 1496 1495 1495 1495 1494 1494 1493 1493 1492 1492 1492 1491 1491 1491 1491 1490 1490 1490 1490 1489 1489 1489 1490 1490 1490 1490 1490 1491 1491 1491
1493 1494 1494 1494 1495 1495 1496 1497 1497 1497 1497 1497 1497 1497 1496 1496 1496 1496 1495 1496 1496 1496 1497 1497 1497 1497 1497 1498 1498 1497 1497 1497 1496 1496 1495 1495 1495 1494 1494 1494 1493 1493 1493 1492 1492 1491 1491 1491 1490 1490 1489 1489 1489 1489 1488 1488 1488 1488 1488 1488 1488 1488 1488 1488 1488 1489 1489 1489 1489
1494 1494 1494 1494 1495 1495 1496 1497 1497 1497 1497 1497 1497 1496 1496 1495 1495 1495 1495 1495 1495 1496 1496 1496 1496 1496 1497 1496 1496 1496 1496 1495 1495 1494 1494 1493 1493 1492 1492 1492 1491 1491 1491 1490 1490 1489 1489 1488 1488 1488 1487 1487 1487 1487 1487 1487 1487 1487 1487 1487 1487 1487 1487 1487 1487 1487 1487 1487 1488
1494 1494 1494 1494 1494 1495 1495 1496 1497 1497 1497 1497 1496 1496 1496 1495 1495 1495 1495 1495 1495 1495 1495 1495 1495 1495 1495 1495 1495 1494 1494 1494 1493 1493 1492 1492 1492 1491 1491 1490 1490 1489 1489 1488 1488 1488 1487 1487 1487 1486 1486 1486 1486 1486 1485 1485 1485 1485 1485 1485 1485 1485 1486 1486 1486 1486 1486 1486 1487
1494 1494 1494 1494 1494 1494 1495 1496 1496 1497 1497 1497 1496 1496 1495 1495 1494 1494 1494 1494 1494 1494 1494 1494 1493 1493 1493 1493 1493 1492 1492 1492 1492 1491 1491 1491 1490 1490 1489 1489 1488 1488 1487 1487 1487 1486 1486 1486 1485 1485 1484 1484 1484 1484 1484 1484 1484 1484 1484 1484 1484 1484 1484 1485 1485 1485 1485 1485 1485
1493 1493 1493 1493 1494 1494 1495 1496 1496 1497 1497 1496 1496 1495 1495 1494 1494 1493 1493 1493 1493 1493 1493 1492 1492 1492 1492 1491 1491 1491 1490 1490 1490 1489 1489 1489 1489 1488 1488 1487 1487 1486 1486 1486 1485 1485 1485 1484 1484 1483 1483 1483 1483 1483 1483 1483 1483 1483 1483 1482 1482 1483 1483 1483 1483 1484 1484 1484 1484
1493 1493 1493 1493 1494 1494 1495 1496 1496 1496 1496 1496 1495 1494 1493 1493 1492 1492 1492 1492 1492 1492 1492 1492 1491 1491 1490 1490 1490 1489 1489 1488 1488 1487 1487 1487 1487 1487 1486 1486 1485 1485 1484 1484 1484 1484 1484 1483 1483 1482 1482 1482 1482 1482 1482 1482 1482 1482 1481 1481 1481 1481 1482 1482 1482 1482 1482 1482 1482
1493 1493 1493 1493 1494 1494 1495 1495 1496 1495 1495 1494 1493 1492 1492 1492 1491 1491 1491 1491 1491 1490 1490 1490 1490 1490 1489 1489 1489 1488 1488 1487 1487 1487 1486 1486 1485 1485 1484 1484 1484 1483 1483 1483 1482 1482 1482 1482 1482 1482 1481 1481 1481 1481 1481 1481 1480 1480 1480 1480 1480 1480 1480 1480 1481 1481 1481 1481 1481
1492 1493 1493 1493 1494 1494 1495 1495 1495 1494 1493 1493 1492 1491 1490 1490 1490 1490 1489 1489 1489 1489 1489 1489 1489 1488 1488 1488 1487 1487 1487 1486 1486 1485 1485 1484 1484 1483 1483 1482 1482 1482 1482 1481 1481 1481 1481 1481 1481 1480 1480 1480 1480 1479 1479 1479 1479 1479 1478 1478 1478 1478 1478 1479 1479 1479 1479 1479 1479
1492 1493 1493 1493 1494 1494 1494 1494 1493 1493 1492 1491 1490 1490 1489 1489 1489 1489 1489 1488 1488 1488 1488 1488 1487 1487 1487 1487 1487 1486 1486 1485 1485 1484 1484 1483 1483 1482 1482 1481 1481 1480 1480 1480 1480 1479 1479 1479 1479 1479 1479 1479 1478 1478 1478 1478 1477 1477 1477 1477 1477 1477 1477 1477 1477 1477 1477 1477 1477
1492 1492 1493 1493 1493 1493 1493 1493 1492 1492 1491 1490 1489 1489 1488 1488 1488 1488 1488 1488 1488 1487 1487 1487 1487 1486 1486 1486 1485 1485 1484 1484 1483 1483 1482 1482 1482 1481 1480 1480 1479 1478 1478 1478 1478 1477 1477 1477 1477 1477 1477 1477 1477 1477 1476 1476 1476 1476 1475 1475 1475 1475 1475 1475 1475 1475 1475 1475 1475
1492 1492 1492 1492 1492 1492 1492 1492 1491 1490 1489 1489 1488 1488 1488 1488 1487 1487 1487 1487 1487 1487 1487 1486 1486 1485 1485 1484 1484 1483 1483 1482 1482 1482 1481 1481 1480 1480 1479 1479 1478 1477 1477 1476 1476 1476 1475 1475 1475 1475 1475 1475 1475 1475 1475 1475 1474 1474 1474 1474 1474 1474 1474 1473 1473 1474 1473 1473 1473
1492 1492 1492 1492 1491 1491 1491 1490 1490 1489 1488 1488 1488 1487 1487 1487 1487 1487 1487 1487 1486 1486 1485 1485 1484 1484 1483 1483 1482 1482 1481 1481 1480 1480 1479 1479 1479 1478 1478 1477 1477 1476 1476 1475 1474 1474 1473 1473 1473 1473 1473 1473 1473 1473 1473 1473 1472 1472 1472 1472 1472 1472 1472 1471 1472 1472 1472 1472 1471
1491 1491 1491 1490 1490 1490 1489 1489 1488 1488 1488 1487 1487 1487 1487 1487 1487 1486 1486 1486 1485 1485 1484 1484 1483 1483 1482 1482 1481 1480 1480 1479 1479 1478 1477 1477 1477 1477 1476 1476 1475 1475 1474 1474 1473 1472 1472 1472 1471 1471 1471 1471 1471 1471 1471 1470 1470 1470 1469 1469 1469 1469 1469 1469 1469 1469 1469 1469 1469
1490 1490 1490 1489 1489 1489 1488 1488 1487 1487 1487 1487 1486 1486 1486 1486 1486 1485 1485 1485 1484 1484 1483 1482 1482 1482 1481 1481 1480 1479 1478 1478 1477 1477 1476 1476 1475 1475 1474 1474 1473 1473 1473 1472 1472 1471 1471 1470 1470 1469 1469 1469 1468 1468 1468 1468 1467 1467 1467 1467 1467 1467 1467 1467 1467 1466 1466 1466 1466
1489 1489 1489 1489 1488 1488 1487 1487 1487 1487 1486 1486 1486 1485 1485 1485 1484 1484 1484 1483 1483 1482 1482 1482 1481 1480 1480 1479 1479 1478 1477 1477 1476 1475 1475 1474 1473 1473 1472 1472 1472 1471 1471 1470 1470 1469 1469 1468 1468 1467 1467 1467 1466 1466 1466 1466 1465 1465 1465 1464 1464 1464 1464 1464 1464 1464 1463 1463 1463
1489 1488 1488 1488 1487 1487 1487 1487 1486 1486 1485 1485 1485 1484 1484 1484 1483 1483 1483 1482 1482 1481 1481 1480 1480 1479 1478 1478 1477 1477 1476 1475 1474 1474 1473 1473 1472 1472 1471 1470 1470 1469 1469 1468 1468 1467 1467 1467 1466 1466 1465 1465 1464 1464 1464 1463 1463 1463 1462 1462 1462 1462 1462 1461 1461 1461 1461 1461 1461
1488 1487 1487 1487 1487 1486 1486 1486 1485 1485 1485 1484 1484 1483 1483 1483 1482 1482 1482 1481 1481 1480 1479 1478 1478 1477 1477 1476 1476 1475 1474 1474 1473 1472 1472 1471 1471 1470 1469 1469 1468 1468 1467 1467 1466 1465 1465 1464 1464 1463 1463 1462 1462 1462 1462 1461 1461 1460 1460 1460 1459 1459 1459 1459 1459 1459 1459 1458 1458
1487 1486 1486 1486 1485 1485 1485 1484 1484 1483 1483 1483 1482 1482 1482 1481 1481 1480 1480 1479 1479 1478 1478 1477 1476 1476 1475 1475 1474 1473 1473 1472 1472 1471 1470 1470 1469 1468 1467 1467 1466 1466 1465 1465 1464 1463 1463 1462 1462 1461 1461 1460 1460 1459 1459 1459 1458 1458 1458 1457 1457 1457 1457 1457 1457 1456 1456 1456 1456
1485 1485 1485 1484 1484 1483 1483 1482 1482 1482 1481 1481 1480 1480 1480 1479 1479 1478 1478 1477 1477 1477 1476 1475 1474 1474 1473 1472 1472 1471 1471 1470 1470 1469 1468 1468 1467 1467 1466 1465 1464 1464 1463 1463 1462 1462 1461 1460 1460 1459 1458 1458 1457 1457 1457 1456 1456 1456 1455 1455 1455 1455 1454 1454 1454 1454 1454 1454 1454
1484 1484 1483 1483 1482 1482 1481 1481 1480 1480 1479 1479 1478 1478 1477 1477 1477 1476 1476 1475 1475 1474 1474 1473 1472 1472 1471 1470 1470 1469 1468 1468 1467 1467 1466 1466 1465 1464 1464 1463 1462 1462 1461 1461 1460 1460 1459 1459 1458 1457 1456 1455 1455 1454 1454 1454 1453 1453 1453 1452 1452 1452 1452 1452 1452 1452 1451 1451 1451
1482 1482 1482 1481 1481 1480 1480 1479 1479 1478 1478 1477 1477 1476 1476 1475 1475 1474 1474 1473 1473 1472 1472 1471 1470 1469 1469 1468 1467 1467 1466 1465 1465 1464 1464 1463 1463 1462 1462 1461 1460 1459 1459 1458 1458 1458 1457 1457 1456 1455 1455 1453 1452 1452 1451 1451 1450 1450 1450 1450 1449 1449 1449 1449 1449 1449 1449 1449 1448
1481 1481 1480 1480 1480 1479 1479 1478 1478 1477 1477 1476 1476 1475 1474 1474 1473 1472 1472 1472 1471 1470 1469 1469 1468 1467 1467 1466 1465 1464 1463 1463 1462 1462 1461 1461 1460 1460 1459 1458 1458 1457 1457 1456 1456 1456 1455 1455 1454 1453 1452 1452 1451 1450 1449 1448 1447 1447 1447 1447 1446 1446 1446 1446 1446 1446 1446 1446 1446
1480 1479 1479 1479 1478 1478 1477 1477 1477 1476 1476 1475 1474 1474 1473 1472 1472 1471 1471 1470 1469 1468 1468 1467 1466 1465 1464 1464 1463 1462 1462 1461 1460 1459 1458 1458 1457 1457 1457 1456 1455 1455 1454 1454 1453 1453 1453 1452 1452 1451 1450 1450 1449 1448 1447 1446 1445 1445 1444 1443 1443 1443 1443 1442 1443 1443 1443 1443 1443
1479 1478 1478 1477 1477 1477 1477 1476 1475 1475 1474 1474 1473 1473 1472 1472 1471 1470 1469 1469 1468 1467 1466 1465 1464 1463 1462 1462 1461 1460 1459 1459 1458 1457 1456 1455 1455 1454 1454 1453 1453 1452 1452 1451 1451 1451 1450 1450 1450 1449 1448 1447 1447 1446 1445 1444 1443 1443 1442 1441 1441 1440 1440 1439 1439 1439 1439 1440 1440
1478 1477 1477 1477 1476 1476 1475 1475 1474 1474 1473 1473 1472 1472 1471 1470 1469 1469 1468 1467 1466 1465 1465 1464 1463 1462 1461 1460 1459 1458 1457 1457 1456 1455 1454 1453 1452 1452 1452 1451 1451 1450 1449 1449 1448 1448 1448 1447 1447 1447 1446 1445 1444 1444 1443 1442 1441 1441 1440 1439 1438 1437 1437 1437 1436 1436 1436 1436 1436
1477 1477 1476 1476 1475 1475 1474 1474 1473 1472 1472 1471 1471 1470 1469 1469 1468 1467 1466 1465 1464 1463 1462 1462 1461 1460 1459 1458 1457 1456 1455 1454 1453 1453 1452 1451 1450 1450 1449 1448 1448 1447 1447 1447 1446 1446 1445 1445 1444 1444 1444 1443 1442 1441 1441 1440 1439 1438 1437 1437 1436 1435 1434 1434 1434 1433 1433 1433 1433
1476 1476 1475 1475 1474 1474 1473 1472 1472 1471 1471 1470 1469 1468 1467 1467 1466 1465 1464 1463 1462 1461 1460 1459 1458 1457 1456 1455 1454 1453 1452 1452 1451 1450 1449 1448 1447 1447 1446 1446 1445 1445 1445 1444 1444 1443 1442 1442 1442 1441 1441 1441 1440 1439 1438 1437 1436 1436 1435 1434 1433 1432 1432 1432 1431 1431 1431 1431 1430
1475 1474 1474 1473 1473 1472 1472 1471 1470 1470 1469 1468 1467 1466 1465 1464 1463 1462 1461 1460 1459 1458 1457 1456 1454 1453 1452 1452 1451 1450 1449 1448 1447 1447 1446 1444 1444 1443 1442 1442 1442 1442 1441 1441 1441 1440 1440 1439 1438 1438 1438 1437 1437 1436 1435 1434 1433 1433 1432 1431 1431 1430 1429 1429 1429 1428 1428 1428 1428
1474 1473 1473 1472 1471 1471 1470 1469 1468 1467 1466 1465 1464 1463 1462 1461 1460 1459 1458 1457 1455 1454 1453 1452 1451 1450 1449 1448 1448 1447 1446 1445 1444 1443 1442 1442 1440 1439 1439 1438 1438 1437 1437 1438 1437 1437 1437 1436 1436 1435 1435 1434 1434 1433 1432 1432 1431 1430 1429 1428 1428 1427 1427 1427 1426 1426 1426 1426 1426
1473 1472 1471 1470 1469 1468 1467 1467 1466 1464 1463 1462 1461 1460 1459 1458 1457 1456 1455 1454 1453 1452 1451 1450 1449 1448 1447 1446 1445 1445 1444 1443 1442 1441 1440 1439 1438 1437 1436 1435 1434 1434 1434 1434 1434 1434 1434 1433 1433 1432 1432 1431 1431 1430 1430 1429 1428 1427 1426 1425 1425 1424 1424 1424 1423 1423 1423 1423 1423
1471 1470 1469 1468 1467 1466 1465 1464 1463 1462 1461 1460 1459 1458 1457 1456 1455 1454 1453 1452 1451 1450 1449 1448 1447 1446 1445 1444 1443 1442 1442 1441 1440 1439 1438 1437 1436 1435 1434 1433 1432 1432 1431 1431 1431 1430 1430 1430 1430 1429 1429 1428 1427 1427 1427 1426 1425 1424 1423 1422 1422 1421 1421 1421 1421 1420 1420 1420 1420
1469 1468 1467 1466 1465 1464 1463 1463 1462 1461 1460 1459 1458 1457 1456 1455 1454 1453 1452 1451 1450 1449 1448 1447 1446 1445 1444 1443 1442 1441 1439 1439 1438 1437 1436 1435 1434 1433 1432 1430 1430 1429 1429 1428 1427 1427 1427 1427 1426 1426 1426 1425 1424 1424 1423 1423 1422 1421 1420 1419 1418 1418 1418 1418 1417 1417 1417 1417 1417
1468 1467 1466 1465 1465 1464 1463 1462 1461 1460 1459 1458 1457 1456 1455 1454 1453 1452 1451 1450 1449 1447 1447 1446 1445 1443 1442 1441 1440 1439 1438 1437 1436 1435 1434 1432 1432 1430 1429 1428 1427 1427 1427 1426 1425 1424 1424 1423 1423 1423 1422 1422 1421 1420 1420 1419 1419 1418 1417 1416 1415 1415 1415 1415 1414 1414 1414 1414 1413
1467 1466 1466 1465 1464 1463 1462 1461 1460 1459 1458 1457 1456 1455 1454 1453 1452 1451 1450 1448 1447 1446 1445 1444 1442 1442 1440 1439 1438 1437 1436 1434 1433 1432 1431 1430 1429 1427 1426 1425 1424 1424 1424 1423 1422 1422 1421 1420 1420 1420 1419 1418 1417 1417 1416 1416 1415 1414 1413 1413 1412 1412 1412 1412 1411 1411 1411 1411 1410
1467 1466 1465 1464 1463 1462 1462 1460 1459 1458 1457 1456 1455 1454 1452 1452 1450 1449 1448 1447 1445 1444 1442 1442 1440 1439 1438 1437 1435 1434 1433 1432 1431 1429 1428 1427 1426 1424 1423 1421 1421 1420 1420 1420 1419 1418 1418 1417 1417 1417 1416 1415 1414 1413 1413 1412 1412 1411 1410 1409 1408 1408 1408 1408 1408 1408 1407 1407 1407
1466 1465 1464 1463 1462 1462 1460 1459 1458 1457 1456 1455 1453 1452 1451 1450 1448 1447 1446 1445 1443 1442 1440 1439 1438 1437 1435 1434 1433 1432 1431 1430 1428 1427 1425 1424 1423 1422 1420 1418 1417 1417 1417 1417 1416 1415 1415 1414 1413 1413 1413 1412 1411 1410 1409 1409 1408 1407 1407 1406 1405 1404 1404 1405 1405 1405 1404 1404 1403
1465 1464 1463 1462 1461 1460 1459 1458 1457 1456 1454 1453 1452 1450 1449 1448 1447 1445 1444 1443 1441 1440 1438 1437 1435 1434 1433 1432 1430 1429 1427 1427 1426 1425 1423 1422 1420 1419 1418 1416 1414 1413 1413 1413 1412 1412 1412 1411 1410 1410 1409 1409 1407 1407 1406 1406 1405 1404 1403 1403 1402 1401 1401 1401 1401 1401 1401 1400 1400
1464 1463 1462 1461 1460 1458 1457 1456 1455 1454 1452 1451 1450 1448 1447 1446 1444 1443 1442 1441 1439 1437 1436 1434 1433 1432 1431 1429 1428 1426 1425 1423 1423 1422 1421 1419 1417 1417 1415 1413 1411 1410 1410 1410 1409 1409 1408 1408 1407 1407 1406 1406 1405 1404 1403 1402 1402 1401 1400 1400 1399 1398 1398 1397 1398 1397 1397 1397 1397
1463 1462 1460 1459 1458 1457 1455 1454 1453 1452 1450 1449 1448 1446 1445 1443 1442 1441 1439 1438 1437 1436 1434 1432 1431 1429 1428 1427 1425 1424 1422 1420 1420 1419 1418 1417 1415 1414 1412 1411 1409 1407 1407 1407 1406 1406 1405 1405 1404 1404 1403 1403 1402 1401 1400 1399 1398 1397 1397 1397 1397 1396 1395 1395 1394 1394 1394 1393 1394